Home > Weather > Langesund > Past weeks

Flag for Norway Past Weather in Langesund, Norway — Yesterday and Last 2 Weeks

Now
60 °F

Cool.


Feels Like: 60 °F
Forecast: 49 / 63 °F
Wind: 13 mph from Southwest

Location: Jomfruland Fyr

Current Time: Jun 28, 2016 at 8:48:16 PM

Latest Report: Jun 28, 2016 at 8:00 PM


Visibility: N/A

Pressure: 29.85 "Hg

Humidity: 76%

Dew Point: 53 °F

Location of LangesundLocation

Past Weather in Langesund — Graph

°F

Langesund Temperature Yesterday

Maximum temperature yesterday: 62 °F (at 4:00 PM)
Minimum temperature yesterday: 56 °F (at 5:00 AM)
Average temperature yesterday: 59 °F

High & Low Weather Summary for the Past Weeks

 TemperatureHumidityPressure
High70 °F (Jun 16, 2:00 PM)94% (Jun 20, 8:00 PM)30.18 "Hg (Jun 20, 8:00 PM)
Low53 °F (Jun 28, 5:00 AM)29% (Jun 14, 6:00 PM)29.56 "Hg (Jun 17, 8:00 PM)
Average61 °F79%29.81 "Hg
* Reported Jun 13 7:00 PM — Jun 28 7:00 PM, Langesund, Weather by CustomWeather, © 2016

Note: Actual official high and low records may vary slightly from our data, if they occured in-between our weather recording intervals... More about our weather records

Advertising

Langesund Weather History for the Previous 24 Hours

Scroll right to see more
 ConditionsComfort  
Time TempWeatherWind HumidityBarometerVisibility
7:00 PM
Tue, Jun 28
61 °FCool.14 mph76%29.84 "HgN/A
6:00 PM62 °FCool.14 mph75%29.85 "HgN/A
5:00 PM62 °FCool.14 mph75%29.85 "HgN/A
4:00 PM62 °FMild.14 mph71%29.85 "HgN/A
3:00 PM62 °FCool.14 mph76%29.85 "HgN/A
2:00 PM62 °FCool.14 mph72%29.85 "HgN/A
1:00 PM62 °FCool.14 mph72%29.85 "HgN/A
12:00 PM64 °FMild.7 mph61%29.86 "HgN/A
11:00 AM64 °FMild.6 mph44%29.86 "HgN/A
10:00 AM63 °FMild.5 mph44%29.85 "HgN/A
9:00 AM61 °FRefreshingly cool.5 mph53%29.84 "HgN/A
8:00 AM58 °FCool.7 mph61%29.83 "HgN/A
7:00 AM56 °FCool.7 mph69%29.83 "HgN/A
6:00 AM54 °FCool.7 mph71%29.82 "HgN/A
5:00 AM53 °FCool.6 mph74%29.81 "HgN/A
3:00 AM54 °FCool.5 mph75%29.79 "HgN/A
2:00 AM56 °FCool.7 mph77%29.79 "HgN/A
1:00 AM58 °FCool.7 mph81%29.77 "HgN/A
12:00 AM59 °FCool.7 mph90%29.76 "HgN/A
11:00 PM
Mon, Jun 27
59 °FCool.6 mph89%29.76 "HgN/A
10:00 PM58 °FCool.5 mph90%29.75 "HgN/A
9:00 PM58 °FCool.1 mph90%29.75 "HgN/A
8:00 PM58 °FCool.1 mph92%29.75 "HgN/A
Weather by CustomWeather, © 2016

See weather overviewHow to use our weather pages